Wind_Speed
4 5 6 5 4 4 3 3 3 3 3 4 5 5 6 7 7 7 7 7 7 8 8 8 7 7 7 7 7 6 6 6 5 4 4 4 3 2 2 2 2 1 1 2
6 6 6 5 4 3 2 2 2 3 3 3 3 3 4 5 6 6 6 7 7 7 8 8 8 8 8 7 7 7 7 6 5 4 3 3 3 2 1 1 1 1 1 2
8 8 6 5 4 3 2 1 1 2 3 3 3 3 3 3 4 5 5 6 7 7 8 8 8 7 8 7 8 8 6 5 5 4 3 3 2 2 2 2 1 1 1 1
10 9 8 7 5 4 2 1 1 1 2 3 2 2 3 2 3 3 4 5 5 6 7 7 7 7 7 7 7 7 6 5 5 5 4 3 2 2 2 2 1 1 1 1
11 10 10 9 7 6 4 3 2 1 1 3 3 3 3 2 2 3 4 4 5 6 7 7 7 7 7 7 7 6 6 5 5 5 5 4 3 3 3 2 1 1 1 1
13 12 12 11 9 7 5 4 3 2 1 2 3 2 4 4 4 4 4 4 5 6 7 7 8 7 6 6 7 6 6 6 6 5 5 5 4 3 3 3 2 2 2 2
15 14 14 12 10 9 6 4 4 4 4 4 4 2 3 4 4 4 4 5 6 7 7 8 8 8 7 7 7 6 6 6 7 6 5 5 4 4 3 3 3 2 3 3
16 16 15 14 12 11 9 8 7 6 6 6 6 5 4 4 4 5 5 5 6 7 7 8 8 8 9 8 8 7 7 7 7 7 6 5 4 4 4 4 4 4 4 5
17 17 16 16 14 13 12 11 10 9 8 6 7 7 6 6 6 6 7 7 7 7 8 8 8 8 9 9 8 8 8 8 8 7 7 7 6 6 5 5 5 6 6 6
18 18 18 17 16 16 14 13 12 10 10 9 8 8 8 7 7 8 7 8 8 9 9 8 9 9 9 9 9 9 8 9 9 9 8 8 8 6 6 7 7 7 8 8
20 19 19 18 18 17 15 15 13 12 11 10 9 11 10 8 9 9 9 9 10 10 10 10 9 10 11 11 11 10 10 10 9 9 9 8 9 8 8 9 9 9 9 9
21 20 20 20 19 19 18 16 15 14 14 13 12 14 12 11 10 10 11 11 11 12 12 12 11 11 12 12 12 12 11 11 10 10 9 9 9 9 10 10 10 10 11 11
24 23 21 20 21 21 20 19 17 16 16 16 14 15 15 13 12 12 12 13 12 13 13 14 14 14 13 13 13 13 13 12 12 11 11 11 11 11 11 11 11 11 12 12
26 25 24 22 22 22 22 22 21 19 18 18 18 18 18 16 15 15 14 14 14 14 15 15 15 15 15 15 15 14 14 14 13 13 13 13 13 13 13 12 12 12 12 13
27 26 25 25 25 25 24 23 23 23 21 20 19 20 20 19 18 17 17 17 17 17 18 18 18 17 17 17 17 16 16 16 16 15 15 15 15 15 15 14 14 14 14 14
28 28 27 26 26 27 27 26 25 24 24 23 23 22 23 22 21 20 20 20 20 20 20 20 20 20 20 19 19 19 18 18 18 18 18 18 18 17 17 17 16 16 16 16
28 28 28 27 28 27 28 27 26 26 26 26 26 25 25 24 23 23 23 23 23 23 23 23 23 23 22 21 21 21 20 20 20 20 20 20 20 20 19 19 18 17 17 16
29 29 29 28 29 29 29 27 26 26 27 28 28 27 27 27 26 26 26 26 26 26 26 26 26 25 24 24 24 23 22 22 21 21 22 22 22 21 21 21 21 20 19 18
29 29 29 30 30 30 31 29 27 27 28 29 29 28 28 28 28 28 28 27 27 27 27 27 27 27 26 26 26 25 25 24 23 23 23 23 23 22 22 21 21 20 20 19
30 30 31 31 31 32 32 30 29 29 31 30 29 29 29 29 29 29 28 28 28 28 28 28 28 29 28 27 27 27 26 26 25 24 24 24 24 24 23 23 22 22 21 21
32 32 32 32 32 33 33 32 31 31 32 30 30 30 30 30 30 30 29 29 29 29 29 29 29 29 30 29 29 28 27 27 27 26 26 25 25 25 24 24 24 24 24 23
33 33 33 33 33 34 33 33 32 32 32 32 31 32 32 32 32 32 31 31 30 30 30 31 30 31 31 31 30 30 29 29 29 28 27 27 26 26 25 25 26 27 26 25
34 34 35 35 35 35 34 34 34 34 34 33 33 34 34 34 33 33 33 32 32 32 32 31 31 32 32 32 32 32 31 30 30 29 28 28 28 28 27 27 27 26 26 27
34 34 35 36 35 35 35 35 35 35 35 35 35 35 36 36 35 34 34 34 33 32 32 33 32 33 33 33 33 33 32 32 32 31 30 29 29 29 28 28 28 28 27 27
33 34 35 36 35 35 35 35 35 35 35 35 35 35 35 36 35 35 35 35 34 34 34 34 35 34 34 34 34 34 34 34 33 32 32 31 31 31 30 30 29 29 29 29
32 34 35 35 34 35 35 35 35 36 36 35 35 35 36 35 35 35 35 35 35 35 35 35 35 35 35 34 33 33 34 34 33 33 33 32 32 32 31 31 31 31 31 31
Wind_Direction
186 174 173 160 134 120 99 66 49 54 70 84 87 76 64 62 60 58 50 46 41 36 36 37 41 37 37 39 42 42 44 62 63 67 76 78 84 96 88 71 74 94 138 128
196 200 194 178 156 140 119 86 51 48 62 82 82 65 52 51 54 52 48 40 37 36 31 32 31 31 31 32 33 34 44 53 51 55 67 73 75 64 43 70 64 81 121 131
212 213 207 195 182 167 150 128 84 41 51 46 58 44 33 39 44 42 40 34 30 27 23 21 21 23 22 25 25 26 37 40 37 38 50 60 55 48 46 42 53 72 144 151
217 218 214 210 203 188 200 210 198 50 37 18 31 21 345 18 25 23 19 18 13 8 9 11 14 13 12 13 14 21 28 29 25 27 27 33 28 23 17 15 343 233 209 181
225 224 218 216 216 211 221 235 236 238 339 4 355 15 334 336 354 354 352 353 351 352 355 358 1 2 1 2 2 10 14 13 10 12 10 9 14 17 9 0 325 300 281 284
226 224 220 215 218 218 222 233 257 276 309 330 321 355 336 336 345 337 339 341 344 348 347 350 349 350 348 348 350 359 2 2 358 353 353 353 354 353 358 358 339 324 303 296
225 227 224 221 225 225 225 233 265 281 280 285 289 309 314 333 340 334 333 327 324 331 333 334 336 341 339 334 335 338 340 347 348 343 339 338 337 333 333 336 330 321 309 301
225 226 226 226 229 233 227 226 235 252 261 273 284 284 298 314 321 321 320 323 328 329 331 331 330 334 332 327 326 325 324 329 333 337 334 332 322 313 314 312 313 312 313 309
225 228 227 227 230 235 233 231 236 247 256 265 274 280 293 305 311 310 310 314 321 323 325 325 328 331 327 323 321 323 317 319 323 325 320 324 320 314 308 302 301 302 302 299
226 230 233 232 234 237 238 241 245 244 250 258 273 282 282 291 300 303 303 304 308 311 317 317 320 323 321 319 315 316 313 315 316 317 311 309 313 307 305 302 297 299 296 292
229 232 235 237 239 242 242 245 245 245 247 250 265 273 277 285 289 291 291 293 298 304 306 310 312 313 313 313 314 310 307 306 310 312 308 302 304 299 298 301 298 298 296 291
230 232 237 241 242 242 243 244 246 251 255 253 257 269 273 276 279 284 285 287 291 296 298 301 304 307 309 311 312 309 306 303 303 306 302 298 297 297 296 294 296 298 297 293
233 233 237 243 245 243 244 245 246 250 255 256 256 265 269 271 272 276 279 281 284 289 291 293 297 300 303 304 305 306 304 302 300 301 296 294 295 295 293 291 292 295 295 293
235 235 236 239 244 247 248 246 246 249 254 258 255 259 265 268 271 273 275 275 278 283 288 289 291 293 296 298 298 299 301 300 295 295 295 293 292 292 290 288 287 288 289 290
235 237 238 240 244 247 249 249 248 249 252 255 258 261 264 265 268 270 273 274 275 277 281 284 287 290 291 292 293 294 294 295 294 291 291 290 291 290 287 286 286 285 287 288
236 239 241 243 245 248 250 251 251 251 253 256 259 262 264 264 266 268 271 272 273 273 275 279 283 286 288 288 290 290 290 291 293 290 287 286 288 288 287 285 284 284 285 286
238 241 243 245 246 250 252 252 252 253 254 256 259 262 264 265 266 267 268 270 270 271 272 275 278 281 283 283 285 286 286 288 289 290 288 285 284 284 283 282 280 280 280 279
240 242 245 248 249 251 253 254 254 254 255 256 259 261 264 266 267 267 267 269 269 270 271 272 273 275 276 278 281 282 281 283 285 287 288 286 283 280 280 278 277 276 275 276
242 244 246 248 251 254 254 255 255 257 258 258 259 261 263 266 268 268 267 268 268 268 269 270 270 272 273 274 277 279 279 280 281 282 284 286 284 282 280 278 275 273 271 272
243 245 248 249 250 254 256 257 258 259 260 260 260 262 263 264 266 267 267 268 268 267 268 269 270 271 272 273 274 276 277 276 276 278 279 282 282 281 280 279 277 275 272 270
244 246 248 250 252 255 258 258 258 258 261 262 262 264 264 264 265 267 267 268 268 267 267 266 268 270 272 272 272 272 273 273 272 273 274 276 278 279 278 277 276 275 272 270
246 248 248 250 253 255 257 258 258 259 261 262 262 262 263 264 266 267 268 268 267 267 267 266 267 268 270 271 271 271 270 270 270 269 270 273 275 275 275 275 276 275 273 271
247 248 250 251 253 256 258 259 259 260 262 263 262 262 263 264 265 266 267 267 266 266 266 266 266 267 268 270 271 271 269 268 268 269 269 270 272 272 272 273 275 275 273 271
250 251 252 253 255 256 258 260 261 262 262 264 265 264 265 266 265 266 266 266 266 265 265 265 266 266 267 269 270 270 268 267 267 267 268 269 271 271 272 273 274 276 276 275
252 253 254 255 257 258 260 261 262 262 263 265 267 268 268 267 266 267 267 267 265 265 266 265 266 265 265 267 268 269 269 266 265 265 266 268 270 271 272 272 273 274 275 275
251 253 254 256 256 258 259 260 262 263 264 266 267 268 268 268 267 267 267 267 266 266 266 265 265 265 265 266 266 267 268 267 265 265 266 268 269 270 271 271 272 273 274 275
Height
5920 5922 5923 5923 5924 5925 5925 5925 5924 5923 5922 5921 5921 5920 5919 5918 5917 5916 5915 5914 5912 5911 5909 5908 5907 5905 5904 5902 5900 5899 5898 5897 5896 5895 5894 5893 5892 5892 5892 5891 5891 5890 5890 5890
5920 5921 5922 5923 5924 5924 5925 5925 5925 5924 5923 5922 5922 5921 5920 5919 5918 5917 5916 5915 5914 5912 5910 5909 5908 5906 5905 5903 5901 5900 5898 5897 5896 5895 5895 5894 5893 5892 5892 5891 5891 5890 5890 5890
5919 5921 5921 5922 5923 5924 5925 5925 5925 5924 5923 5923 5923 5923 5921 5920 5919 5918 5917 5916 5915 5913 5912 5910 5909 5907 5906 5904 5902 5901 5899 5898 5897 5896 5895 5894 5894 5893 5892 5891 5891 5891 5890 5890
5917 5919 5920 5921 5922 5924 5924 5924 5924 5924 5924 5924 5924 5925 5923 5921 5920 5919 5918 5917 5915 5914 5913 5911 5909 5908 5907 5905 5903 5902 5900 5899 5898 5897 5896 5895 5894 5893 5893 5892 5891 5891 5890 5890
5916 5917 5918 5920 5921 5922 5923 5924 5924 5924 5924 5925 5924 5925 5924 5922 5921 5920 5919 5917 5916 5915 5913 5912 5911 5909 5907 5906 5904 5903 5901 5900 5898 5897 5897 5895 5894 5893 5892 5891 5891 5890 5890 5890
5914 5915 5916 5918 5919 5920 5922 5923 5923 5924 5925 5926 5925 5924 5924 5922 5921 5920 5919 5917 5916 5915 5914 5912 5911 5909 5908 5906 5905 5903 5902 5900 5899 5898 5897 5895 5894 5893 5892 5891 5891 5890 5890 5890
5911 5913 5914 5916 5917 5919 5921 5923 5925 5926 5926 5926 5924 5923 5924 5922 5920 5919 5918 5917 5916 5915 5914 5912 5911 5909 5908 5906 5905 5903 5902 5901 5899 5898 5896 5895 5894 5893 5892 5891 5891 5890 5890 5889
5909 5911 5912 5914 5916 5917 5919 5921 5924 5925 5926 5925 5923 5922 5923 5921 5920 5919 5918 5917 5916 5914 5913 5912 5911 5909 5908 5906 5905 5903 5902 5901 5899 5898 5896 5895 5894 5893 5892 5891 5890 5890 5889 5889
5906 5908 5910 5911 5913 5915 5916 5918 5920 5922 5922 5923 5923 5921 5921 5919 5919 5918 5917 5916 5915 5914 5912 5911 5910 5909 5907 5905 5904 5903 5902 5900 5899 5897 5896 5895 5893 5892 5891 5891 5890 5889 5889 5888
5902 5905 5906 5908 5910 5911 5914 5915 5917 5919 5919 5921 5921 5920 5920 5918 5917 5916 5915 5915 5914 5913 5912 5910 5909 5908 5906 5905 5903 5902 5901 5899 5898 5897 5895 5894 5892 5891 5890 5890 5889 5888 5887 5886
5898 5901 5903 5904 5906 5908 5910 5912 5913 5914 5916 5918 5920 5920 5916 5915 5915 5914 5913 5913 5912 5911 5910 5909 5908 5906 5905 5903 5902 5900 5899 5898 5896 5895 5894 5893 5891 5890 5889 5888 5887 5886 5885 5885
5893 5897 5899 5901 5902 5903 5906 5907 5909 5911 5912 5913 5915 5917 5913 5912 5912 5912 5911 5910 5910 5909 5908 5907 5906 5905 5903 5902 5900 5898 5897 5896 5894 5893 5892 5891 5890 5889 5888 5887 5886 5885 5884 5883
5888 5892 5894 5896 5899 5899 5900 5902 5904 5907 5908 5909 5911 5913 5909 5909 5909 5909 5908 5907 5906 5906 5905 5904 5903 5902 5901 5900 5898 5897 5895 5894 5892 5891 5890 5889 5888 5887 5886 5884 5883 5882 5881 5880
5883 5886 5890 5893 5894 5894 5895 5897 5899 5901 5903 5904 5905 5906 5905 5905 5905 5905 5904 5904 5903 5902 5902 5901 5900 5899 5898 5897 5896 5894 5893 5891 5890 5889 5888 5886 5885 5884 5883 5882 5881 5880 5878 5877
5876 5879 5882 5885 5886 5888 5889 5891 5893 5895 5897 5899 5900 5900 5900 5900 5900 5900 5900 5899 5899 5898 5898 5897 5896 5896 5895 5893 5892 5891 5890 5888 5887 5886 5885 5883 5882 5881 5880 5879 5877 5876 5875 5874
5870 5873 5875 5878 5879 5881 5883 5885 5887 5888 5890 5892 5893 5894 5894 5894 5894 5894 5894 5894 5894 5893 5893 5892 5892 5891 5890 5889 5888 5887 5886 5885 5883 5882 5881 5880 5878 5877 5876 5875 5874 5873 5872 5870
5863 5866 5868 5871 5873 5874 5876 5878 5880 5881 5883 5885 5886 5887 5886 5887 5888 5888 5888 5888 5888 5888 5887 5887 5886 5886 5885 5884 5883 5882 5881 5880 5878 5877 5876 5875 5873 5872 5871 5870 5869 5868 5867 5866
5856 5858 5861 5863 5866 5867 5871 5871 5873 5874 5875 5877 5878 5878 5879 5880 5881 5881 5881 5881 5881 5881 5881 5880 5880 5879 5879 5878 5877 5876 5875 5874 5873 5872 5871 5869 5868 5867 5866 5865 5864 5863 5862 5861
5848 5850 5853 5855 5857 5859 5862 5863 5865 5866 5867 5868 5870 5870 5871 5872 5873 5873 5873 5873 5873 5873 5873 5873 5872 5872 5872 5871 5871 5870 5869 5868 5867 5866 5865 5864 5863 5862 5860 5860 5858 5857 5856 5856
5839 5842 5845 5847 5849 5851 5854 5855 5857 5859 5858 5860 5861 5862 5863 5864 5865 5865 5865 5865 5865 5865 5865 5865 5864 5864 5864 5864 5863 5863 5862 5861 5860 5860 5859 5858 5857 5856 5855 5854 5853 5852 5851 5850
5831 5833 5835 5837 5839 5841 5844 5846 5848 5850 5851 5852 5853 5853 5854 5854 5856 5856 5856 5856 5856 5856 5856 5856 5856 5856 5856 5855 5855 5855 5854 5854 5853 5853 5852 5851 5850 5849 5848 5848 5847 5846 5845 5844
5823 5825 5827 5828 5830 5833 5834 5836 5839 5840 5841 5842 5843 5843 5844 5845 5845 5846 5846 5847 5847 5847 5847 5847 5847 5847 5847 5846 5846 5846 5846 5845 5845 5845 5844 5844 5843 5842 5842 5841 5840 5839 5838 5837
5813 5816 5817 5819 5822 5823 5824 5826 5828 5829 5831 5832 5833 5834 5834 5834 5835 5836 5836 5837 5837 5838 5838 5838 5838 5838 5838 5837 5837 5837 5837 5837 5837 5837 5836 5836 5835 5834 5834 5833 5832 5831 5830 5829
5803 5805 5807 5809 5811 5813 5814 5816 5817 5819 5820 5821 5822 5823 5823 5824 5824 5825 5826 5827 5827 5827 5828 5828 5828 5828 5828 5828 5828 5827 5827 5827 5828 5828 5828 5827 5827 5826 5826 5825 5824 5824 5823 5822
5794 5795 5797 5798 5801 5803 5804 5805 5807 5808 5809 5810 5811 5812 5812 5813 5814 5814 5815 5816 5816 5817 5817 5817 5817 5817 5818 5818 5818 5817 5817 5817 5818 5818 5818 5818 5818 5818 5817 5817 5816 5816 5815 5814
5784 5785 5787 5788 5791 5792 5794 5795 5796 5797 5798 5799 5800 5801 5801 5802 5803 5803 5804 5804 5805 5806 5806 5806 5806 5807 5807 5807 5807 5807 5807 5807 5808 5808 5809 5808 5808 5808 5808 5807 5807 5807 5806 5806